Date,TemperatureHighF,TemperatureAvgF,TemperatureLowF,DewpointHighF,DewpointAvgF,DewpointLowF,HumidityHigh,HumidityAvg,HumidityLow,PressureMaxIn,PressureMinIn,WindSpeedMaxMPH,WindSpeedAvgMPH,GustSpeedMaxMPH,PrecipitationSumIn
2014-1-1,50.0,39.7,31.1,39.8,32.4,28.3,99,77,48,30.43,30.13,9,2,11,0.00
2014-1-2,50.9,39.4,24.1,50.6,33.2,8.2,99,80,48,30.41,29.93,13,3,23,0.27
2014-1-3,32.5,26.3,19.4,14.6,7.2,0.4,60,45,25,30.58,30.40,11,4,15,0.00
2014-1-4,47.1,36.6,23.2,33.0,16.0,3.2,76,45,23,30.45,30.20,11,4,17,0.00
2014-1-5,53.8,43.1,27.1,52.4,37.5,23.2,95,81,71,30.20,29.77,15,4,22,0.13
2014-1-6,27.0,17.2,9.3,23.1,1.6,-12.6,86,52,25,30.67,30.13,10,4,15,0.00
2014-1-7,23.7,14.4,5.9,2.0,-4.6,-8.3,55,42,25,30.72,30.59,11,3,14,0.00
2014-1-8,39.0,25.7,14.0,17.1,6.9,-11.5,75,48,11,30.67,30.49,6,2,8,0.00
2014-1-9,48.4,40.4,29.3,41.6,24.9,11.0,88,55,30,30.55,30.38,6,2,8,0.00
2014-1-10,52.7,46.5,42.3,52.4,44.9,40.3,99,94,88,30.37,29.91,5,2,8,0.00
2014-1-11,63.1,55.4,38.7,61.6,40.1,15.4,99,65,16,30.09,29.73,11,3,17,0.69
2014-1-12,59.9,42.3,32.5,41.9,30.9,10.7,99,71,15,30.25,30.08,6,1,8,0.00
2014-1-13,50.5,46.3,38.5,50.3,43.9,33.2,99,91,73,30.17,29.87,8,1,13,0.25
2014-1-14,59.7,50.5,43.5,52.1,36.3,15.7,99,64,18,30.07,29.87,7,2,13,0.02
2014-1-15,47.3,39.4,27.5,33.2,16.0,-11.9,77,43,10,30.23,30.06,8,2,14,0.00
2014-1-16,48.7,34.1,21.4,18.0,10.3,-1.2,71,42,13,30.23,29.96,14,3,18,0.00
2014-1-17,30.0,29.2,28.4,9.3,8.7,8.1,44,42,39,30.23,30.23,2,1,2,0.00
2014-1-18,46.9,37.2,19.8,16.6,-9.0,-99.9,67,27,10,30.30,29.97,11,3,17,0.00
2014-1-19,52.7,42.8,31.5,24.9,17.1,5.2,73,38,16,30.20,29.96,8,2,15,0.00
2014-1-20,63.5,46.0,28.8,29.4,6.5,-99.9,77,41,10,30.14,29.92,8,3,13,0.00
2014-1-21,48.6,35.9,19.9,25.3,16.2,2.1,54,45,30,30.26,29.84,16,4,27,0.00
2014-1-22,34.3,22.3,16.2,6.5,2.1,-19.2,61,43,10,30.31,30.16,8,3,12,0.00
2014-1-23,32.2,24.1,16.9,14.5,-0.6,-18.1,67,36,15,30.78,30.30,13,4,21,0.00
2014-1-24,28.9,18.4,9.3,1.9,-7.7,-22.7,53,34,10,30.80,30.31,3,0,8,0.00
2014-1-25,46.6,32.7,16.0,16.9,-3.7,-99.9,54,27,10,30.31,29.95,11,1,17,0.00
2014-1-26,56.8,40.5,25.0,30.3,19.7,10.4,76,49,16,30.08,29.89,10,2,15,0.00
2014-1-27,45.9,36.0,23.2,33.2,-17.4,-99.9,74,32,10,30.35,29.90,15,4,23,0.00
2014-1-28,23.2,19.0,15.1,11.1,-0.6,-10.1,73,44,22,30.46,30.33,3,0,12,0.00
2014-1-29,29.1,18.9,9.3,-0.3,-14.7,-99.9,48,30,10,30.54,30.43,0,0,8,0.00
2014-1-30,42.1,24.8,10.0,13.1,-12.3,-99.9,75,38,10,30.46,30.20,11,1,15,0.00
2014-1-31,52.3,34.8,21.7,22.6,14.3,5.0,69,46,17,30.32,30.14,4,0,5,0.00